TimeCDT,TemperatureF,Dew PointF,Humidity,Sea Level PressureIn,VisibilityMPH,Wind Direction,Wind SpeedMPH,Gust SpeedMPH,PrecipitationIn,Events,Conditions,WindDirDegrees,DateUTC
12:20 AM,69.8,66.2,88,29.95,2.5,ESE,6.9,-,N/A,,Overcast,110,2013-09-30 05:20:00
12:35 AM,69.8,66.2,88,29.96,3.0,ESE,5.8,-,N/A,,Overcast,120,2013-09-30 05:35:00
12:53 AM,69.1,66.0,90,29.95,3.0,SE,3.5,-,N/A,,Overcast,130,2013-09-30 05:53:00
1:24 AM,69.8,66.2,88,29.95,1.8,ESE,4.6,-,N/A,,Overcast,120,2013-09-30 06:24:00
1:36 AM,68.0,66.2,94,29.95,3.0,SE,4.6,-,N/A,,Overcast,130,2013-09-30 06:36:00
1:47 AM,68.0,66.2,94,29.95,1.5,SE,4.6,-,N/A,,Overcast,130,2013-09-30 06:47:00
1:53 AM,68.0,66.0,93,29.94,0.5,ESE,4.6,-,N/A,Fog,Fog,120,2013-09-30 06:53:00
2:53 AM,68.0,66.0,93,29.94,0.8,Calm,Calm,-,N/A,,Mist,0,2013-09-30 07:53:00
3:10 AM,68.0,66.2,94,29.94,0.5,ENE,3.5,-,N/A,Fog,Fog,70,2013-09-30 08:10:00
3:53 AM,68.0,66.0,93,29.94,0.5,East,3.5,-,N/A,Fog,Fog,100,2013-09-30 08:53:00
4:07 AM,68.0,66.2,94,29.94,0.8,Calm,Calm,-,N/A,,Mist,0,2013-09-30 09:07:00
4:15 AM,68.0,66.2,94,29.94,0.5,East,3.5,-,N/A,Fog,Fog,90,2013-09-30 09:15:00
4:23 AM,68.0,66.2,94,29.94,0.8,East,3.5,-,N/A,,Mist,100,2013-09-30 09:23:00
4:53 AM,68.0,66.0,93,29.94,1.0,East,3.5,-,N/A,,Mist,90,2013-09-30 09:53:00
5:05 AM,68.0,66.2,94,29.94,0.8,East,3.5,-,N/A,,Mist,90,2013-09-30 10:05:00
5:35 AM,68.0,66.2,94,29.95,1.2,East,4.6,-,N/A,,Overcast,80,2013-09-30 10:35:00
5:45 AM,68.0,66.2,94,29.95,2.5,East,3.5,-,N/A,,Overcast,90,2013-09-30 10:45:00
5:53 AM,68.0,66.0,93,29.94,2.5,ENE,3.5,-,N/A,,Overcast,60,2013-09-30 10:53:00
6:28 AM,68.0,66.2,94,29.95,3.0,East,4.6,-,N/A,,Overcast,80,2013-09-30 11:28:00
6:53 AM,69.1,66.0,90,29.94,5.0,East,4.6,-,N/A,,Overcast,90,2013-09-30 11:53:00
7:53 AM,69.1,66.0,90,29.96,5.0,ENE,5.8,-,N/A,,Overcast,70,2013-09-30 12:53:00
8:53 AM,69.1,66.0,90,29.96,5.0,East,6.9,-,N/A,,Overcast,80,2013-09-30 13:53:00
9:53 AM,70.0,66.0,87,29.97,7.0,ESE,5.8,-,N/A,,Overcast,110,2013-09-30 14:53:00
10:15 AM,71.6,66.2,83,29.98,9.0,ESE,6.9,-,N/A,,Overcast,120,2013-09-30 15:15:00
10:53 AM,72.0,66.9,84,29.97,8.0,East,8.1,-,N/A,,Overcast,80,2013-09-30 15:53:00
11:53 AM,73.0,66.9,81,29.97,10.0,East,9.2,-,N/A,,Overcast,100,2013-09-30 16:53:00
12:25 PM,73.4,66.2,78,29.98,10.0,East,6.9,-,N/A,,Overcast,80,2013-09-30 17:25:00
12:53 PM,73.9,66.9,79,29.96,10.0,ESE,8.1,-,N/A,,Overcast,110,2013-09-30 17:53:00
1:53 PM,75.0,66.9,76,29.93,10.0,East,6.9,-,N/A,,Overcast,90,2013-09-30 18:53:00
2:11 PM,75.2,66.2,73,29.93,10.0,East,6.9,-,N/A,,Overcast,100,2013-09-30 19:11:00
2:53 PM,75.0,66.9,76,29.93,10.0,ESE,6.9,-,N/A,,Overcast,110,2013-09-30 19:53:00
3:53 PM,75.9,66.9,74,29.91,10.0,SE,6.9,-,N/A,,Overcast,130,2013-09-30 20:53:00
4:46 PM,77.0,68.0,74,29.91,10.0,ESE,6.9,-,0.00,,Mostly Cloudy,110,2013-09-30 21:46:00
4:53 PM,77.0,68.0,74,29.90,10.0,East,6.9,-,0.00,,Mostly Cloudy,100,2013-09-30 21:53:00
5:15 PM,77.0,66.2,69,29.91,10.0,SE,9.2,-,N/A,,Scattered Clouds,140,2013-09-30 22:15:00
5:53 PM,75.9,68.0,76,29.91,10.0,ESE,6.9,-,N/A,,Scattered Clouds,120,2013-09-30 22:53:00
6:35 PM,75.2,68.0,78,29.93,10.0,East,5.8,-,N/A,,Mostly Cloudy,100,2013-09-30 23:35:00
6:42 PM,73.4,68.0,83,29.93,10.0,East,5.8,-,N/A,,Overcast,90,2013-09-30 23:42:00
6:53 PM,73.9,68.0,82,29.92,10.0,East,5.8,-,N/A,,Mostly Cloudy,100,2013-09-30 23:53:00
7:22 PM,73.4,68.0,83,29.94,10.0,ESE,4.6,-,N/A,,Overcast,110,2013-10-01 00:22:00
7:53 PM,73.0,68.0,84,29.94,10.0,East,5.8,-,N/A,,Overcast,80,2013-10-01 00:53:00
8:37 PM,71.6,66.2,83,29.94,8.0,ENE,4.6,-,N/A,,Mostly Cloudy,70,2013-10-01 01:37:00
8:53 PM,71.1,66.9,87,29.94,7.0,ENE,5.8,-,N/A,,Partly Cloudy,70,2013-10-01 01:53:00
9:04 PM,69.8,66.2,88,29.95,6.0,East,4.6,-,N/A,,Scattered Clouds,80,2013-10-01 02:04:00
9:53 PM,70.0,66.0,87,29.96,6.0,ENE,4.6,-,N/A,,Mostly Cloudy,70,2013-10-01 02:53:00
10:53 PM,71.1,66.9,87,29.96,7.0,East,4.6,-,N/A,,Overcast,90,2013-10-01 03:53:00
11:27 PM,71.6,68.0,88,29.96,8.0,East,3.5,-,N/A,,Overcast,100,2013-10-01 04:27:00
11:53 PM,72.0,68.0,87,29.95,8.0,ESE,4.6,-,N/A,,Overcast,110,2013-10-01 04:53:00